Flag for Finland Weather past 2 weeks in Kemi, Finland

Now
54 °F

Partly sunny.


Feels Like: 52 °F
Forecast: 39 / 55 °F
Wind: 7 mph from Southwest

Location: Kemi Airport

Current Time: Sep 20, 2014 at 6:00:29 PM

Latest Report: Sep 20, 2014 at 4:20 PM


Visibility: N/A

Pressure: 29.77 "Hg

Humidity: 94%

Dew point: 52 °F

Location of KemiLocation

Historic Weather in Kemi — Graph

°F

Kemi temperature yesterday

Maximum temperature yesterday: 55 °F (at 3:20 AM)
Minimum temperature yesterday: 52 °F (at 12:20 AM)
Average temperature yesterday: 54 °F

Past Weeks' High & Low Weather Summary

 TemperatureHumidityPressure
High64 °F (Sep 6, 3:20 PM)100% (Sep 5, 10:20 PM)30.48 "Hg (Sep 5, 10:20 PM)
Low30 °F (Sep 15, 4:20 AM)42% (Sep 12, 2:20 PM)29.77 "Hg (Sep 20, 3:20 PM)
Average54 °F87%30.13 "Hg
* Reported Sep 5 3:20 PM — Sep 20 3:50 PM, Kemi, Weather by CustomWeather, © 2014

Note: Actual official high and low records may vary slightly from our data, if they occured in-between our weather recording intervals... More about our weather records

Advertising

Kemi weather history for previous 24 hours

 ConditionsComfort  
Time TempWeatherWind HumidityBarometerVisibility
3:50 PM
Sep 20
54 °FLow clouds.8 mph88%29.77 "HgN/A
3:20 PM55 °FPartly sunny.9 mph88%29.77 "HgN/A
2:59 PM55 °FPartly sunny.9 mph88%29.80 "HgN/A
2:31 PM55 °FOvercast.9 mph88%29.80 "HgN/A
1:50 PMN/APartly sunny.9 mphN/AN/AN/A
1:20 PMN/ALow clouds.6 mphN/AN/AN/A
12:50 PMN/ALow clouds.7 mphN/AN/AN/A
12:20 PMN/ALow clouds.9 mphN/AN/AN/A
11:50 AMN/A9 mphN/AN/AN/A
11:20 AM54 °FLow clouds.7 mph88%29.83 "HgN/A
10:50 AM52 °FLow clouds.7 mph94%29.83 "HgN/A
10:20 AM52 °FLow clouds.8 mph94%29.83 "HgN/A
9:50 AM52 °FLow clouds.8 mph94%29.83 "HgN/A
9:20 AM54 °FPartly sunny.7 mph88%29.83 "HgN/A
8:50 AM54 °FOvercast.6 mph88%29.83 "HgN/A
8:20 AM54 °FPartly sunny.5 mph88%29.83 "HgN/A
7:50 AM52 °FPassing clouds.6 mph100%29.83 "Hg6 mi
7:20 AM50 °FOvercast.No wind100%29.86 "Hg4 mi
6:50 AM50 °FOvercast.1 mph100%29.86 "Hg3 mi
6:20 AM48 °FFog.No wind100%29.86 "Hg2 mi
5:50 AM48 °FFog.No wind100%29.86 "Hg2 mi
5:20 AM48 °FFog.No wind100%29.89 "Hg0 mi
4:50 AM50 °FFog.No wind100%29.89 "Hg2 mi
4:20 AM50 °FLight rain. Passing clouds.No wind100%29.89 "Hg4 mi
3:50 AM52 °FPassing clouds.No wind94%29.89 "Hg6 mi
3:20 AM52 °FPassing clouds.No wind94%29.92 "HgN/A
2:50 AM52 °FOvercast.1 mph100%29.92 "HgN/A
2:20 AM52 °FOvercast.2 mph100%29.92 "Hg6 mi
1:50 AM52 °FOvercast.3 mph100%29.92 "HgN/A
1:20 AM52 °FOvercast.No wind94%29.92 "HgN/A
12:50 AM52 °FOvercast.No wind94%29.92 "HgN/A
12:20 AM54 °FOvercast.1 mph88%29.92 "HgN/A
11:50 PM
Sep 19
54 °FPassing clouds.3 mph88%29.95 "HgN/A
11:20 PM52 °FOvercast.3 mph94%29.95 "HgN/A
10:50 PM54 °FOvercast.3 mph88%29.95 "HgN/A
10:20 PM54 °FLow clouds.5 mph94%29.95 "HgN/A
9:56 PM54 °FLow clouds.5 mph94%29.95 "HgN/A
9:30 PM54 °FOvercast.3 mph94%29.95 "HgN/A
8:50 PM54 °FOvercast.No wind94%29.98 "HgN/A
8:20 PM54 °FOvercast.No wind94%29.98 "HgN/A
7:50 PM54 °FOvercast.No wind94%29.98 "HgN/A
7:20 PM55 °FOvercast.No wind88%29.98 "HgN/A
6:50 PM55 °FPartly sunny.2 mph88%29.98 "HgN/A
6:20 PM55 °FPartly sunny.2 mph88%29.98 "HgN/A
Weather by CustomWeather, © 2014

See weather overviewHow to use our weather pages